Weather History for Pendleton, OR

Change the Weather History Date:

Monday, April 14, 2014

  Actual Average Record
Temperature  
Mean Temperature 52 °F 50 °F  
Max Temperature 72 °F 62 °F 90 °F (1904)
Min Temperature 31 °F 39 °F 19 °F (1911)
Degree Days  
Heating Degree Days 13 15  
Month to date heating degree days 185 220  
Since 1 July heating degree days 5051 4736  
Cooling Degree Days 0 0  
Month to date cooling degree days 0 0  
Year to date cooling degree days 0 0  
Growing Degree Days 1 (Base 50)    
Moisture  
Dew Point 27 °F    
Average Humidity 43    
Maximum Humidity 66    
Minimum Humidity 20    
Precipitation  
Precipitation 0.00 in 0.04 in 0.47 in (1998)
Month to date precipitation 0.20 0.53  
Year to date precipitation 4.82 4.39  
Snow  
Snow 0.00 in 0.00 in 2.20 in (1975)
Month to date snowfall 0.0 0.0  
Year to date snowfall 15.2 7.7  
Since 1 July snowfall 21.7 15.2  
Snow Depth 0.00 in    
Sea Level Pressure  
Sea Level Pressure 30.08 in    
Wind  
Wind Speed 9 mph (SW)    
Max Wind Speed 24 mph    
Max Gust Speed 29 mph    
Visibility 10 miles    
Events      
T = Trace of Precipitation, MM = Missing Value Source: NWS Daily Summary

Daily Weather History Graph

Daily Weather History Graph

Search for Another Location

Airport:

Trip Planner

Search our weather history database for the weather conditions in past years. The results will help you decide how hot, cold, wet, or windy it might be!

Date:

Astronomy

Apr. 14, 2014 Rise Set
Actual Time 6:11 AM PDT 7:40 PM PDT
Civil Twilight 5:40 AM PDT 8:11 PM PDT
Nautical Twilight 5:02 AM PDT 8:49 PM PDT
Astronomical Twilight 4:22 AM PDT 9:30 PM PDT
Moon 7:24 PM PDT (4/14) 5:48 AM PDT (4/14)
Length of Visible Light 14h 31m
Length of Day
13h 29m
Full, 100% of the Moon is Illuminated
Apr 14
Full
Apr 15
Full
Apr 22
Last Quarter
Apr 28
New
May 6
First Quarter

Hourly Weather History & Observations

Time (PDT) Temp. Windchill Dew Point Humidity Pressure Visibility Wind Dir Wind Speed Gust Speed Precip Events Conditions
12:53 AM 36.0 °F 29.6 °F 24.1 °F 62% 30.24 in 10.0 mi ESE 8.1 mph - N/A   Clear
1:53 AM 37.4 °F 32.1 °F 24.8 °F 60% 30.23 in 10.0 mi SE 6.9 mph - N/A   Clear
2:53 AM 34.0 °F 27.2 °F 23.0 °F 64% 30.22 in 10.0 mi ESE 8.1 mph - N/A   Clear
3:53 AM 37.0 °F 31.0 °F 24.1 °F 59% 30.21 in 10.0 mi SE 8.1 mph - N/A   Clear
4:53 AM 36.0 °F 29.0 °F 24.1 °F 62% 30.20 in 10.0 mi SE 9.2 mph - N/A   Clear
5:53 AM 32.0 °F 25.6 °F 23.0 °F 69% 30.19 in 10.0 mi ESE 6.9 mph - N/A   Clear
6:53 AM 36.0 °F 33.3 °F 24.1 °F 62% 30.17 in 10.0 mi SE 3.5 mph - N/A   Clear
7:53 AM 45.0 °F - 24.1 °F 44% 30.17 in 10.0 mi Calm Calm - N/A   Clear
8:53 AM 52.0 °F - 23.0 °F 32% 30.17 in 10.0 mi SW 3.5 mph - N/A   Clear
9:53 AM 55.9 °F - 27.0 °F 33% 30.15 in 10.0 mi Variable 3.5 mph - N/A   Clear
10:53 AM 61.0 °F - 25.0 °F 25% 30.14 in 10.0 mi North 4.6 mph - N/A   Clear
11:53 AM 66.0 °F - 25.0 °F 21% 30.11 in 10.0 mi North 6.9 mph - N/A   Clear
12:53 PM 66.9 °F - 26.1 °F 21% 30.08 in 10.0 mi WNW 8.1 mph - N/A   Clear
1:53 PM 70.0 °F - 26.1 °F 19% 30.04 in 10.0 mi Variable 4.6 mph - N/A   Clear
2:53 PM 71.1 °F - 28.0 °F 20% 30.02 in 10.0 mi WNW 11.5 mph - N/A   Clear
3:53 PM 70.0 °F - 28.0 °F 21% 30.00 in 10.0 mi WNW 11.5 mph - N/A   Clear
4:53 PM 66.0 °F - 30.0 °F 26% 30.00 in 10.0 mi WNW 12.7 mph - N/A   Clear
5:53 PM 64.0 °F - 28.0 °F 26% 29.99 in 10.0 mi WNW 3.5 mph - N/A   Clear
6:53 PM 63.0 °F - 30.0 °F 29% 29.98 in 10.0 mi SW 3.5 mph - N/A   Clear
7:53 PM 60.1 °F - 33.1 °F 36% 29.95 in 10.0 mi South 5.8 mph - N/A   Clear
8:53 PM 59.0 °F - 33.1 °F 38% 29.96 in 10.0 mi SSW 9.2 mph - N/A   Mostly Cloudy
9:53 PM 59.0 °F - 30.0 °F 33% 29.96 in 10.0 mi WSW 23.0 mph 26.5 mph N/A   Mostly Cloudy
10:00 PM 59.0 °F - 28.9 °F 32% 29.98 in 10.0 mi WSW 19.6 mph - N/A   Overcast
10:53 PM 57.0 °F - 28.9 °F 34% 29.96 in 10.0 mi WSW 18.4 mph - N/A   Clear
11:53 PM 55.9 °F - 33.1 °F 42% 29.97 in 10.0 mi WSW 18.4 mph - N/A   Clear